Location: Chervonnoye
(48.6000°N, 34.4000°E)
Time: 16:30:39
(UTC+00:00)

Okean-O - Pass Details

Date: 23 November 2020
Orbit: 639 x 640 km, 98.2° (Epoch: 27 January)

Event Time Altitude Azimuth Distance (km) Brightness Sun altitude
Rises 16:26:11 0° 174° (S) 2,930 6.0 -24.6°
Reaches altitude 10° 16:28:24 10° 178° (S) 2,026 5.2 -25.0°
Maximum altitude 16:32:46 60° 258° (WSW) 738 3.1 -25.7°
Drops below altitude 10° 16:37:10 10° 339° (NNW) 2,044 5.4 -26.4°
Sets 16:39:25 0° 343° (NNW) 2,958 6.2 -26.8°
